Regional Weather Roundup
Issued by NWS

Home | Current Version | Previous Version | Graphics & Text | Print | Product List | Glossary On
Versions: 1 2 3 4 5 6 7 8 9 10 11 12 13 14 15 16 17 18 19 20 21 22 23 24 25 26 27 28 29 30 31 32 33 34 35 36 37 38 39 40 41 42 43 44 45 46 47 48 49 50
000
ASUS45 KTFX 011110
RWRMT
MONTANA REGIONAL WEATHER ROUNDUP
NATIONAL WEATHER SERVICE GREAT FALLS MT
500 AM MDT WED JUL 01 2015

NOTE: "FAIR" INDICATES FEW OR NO CLOUDS BELOW 12000 FEET WITH NO
SIGNIFICANT WEATHER AND/OR OBSTRUCTIONS TO VISIBILITY.

MTZ001>007-043-011200-
WEST OF THE DIVIDE

CITY           SKY/WX    TMP DP  RH WIND       PRES   REMARKS
KALISPELL      SUNNY     53  50  89 CALM      30.02R
MISSOULA       CLEAR     62  47  57 E3        30.07S
BUTTE          CLEAR     51  44  77 SE6       30.20R
MULLAN PASS    CLEAR     64  41  42 NW3       30.21F
DEER LODGE       N/A     54  46  76 CALM      30.19R
EUREKA           N/A     64  57  77 N3        30.05R
HAMILTON         N/A     61  50  67 S6        30.09R
PLAINS           N/A     57  48  72 CALM      30.03S
RONAN            N/A     55  50  83 CALM      30.07F
THOMPSON FALLS   N/A     56  46  69 CALM      30.06F
$$

MTZ008-052>055-011200-
SOUTHWEST MONTANA

CITY           SKY/WX    TMP DP  RH WIND       PRES   REMARKS
BOZEMAN        MOCLDY    58  50  75 CALM      30.11R
DILLON         MOCLDY    62  46  55 S6        30.15R
W YELLOWSTONE  MOCLDY    48  46  93 CALM      30.25S
THREE FORKS      N/A     58  58 100 CALM      30.09R
TWIN BRIDGES     N/A     59  45  59 CALM      30.12R
$$

MTZ009-010-012-014-046-048-049-054-011200-
EAST SLOPES AND CENTRAL MONTANA

CITY           SKY/WX    TMP DP  RH WIND       PRES   REMARKS
CUT BANK       CLEAR     55  51  86 N7        30.06F FOG
GREAT FALLS    CLEAR     55  51  86 W5        30.07R
MALMSTROM AFB  CLEAR     58  53  84 SW6       30.07R
HELENA         CLEAR     64  48  56 SE3       30.08S
$$

MTZ011-013-016-021-045-047-050-051-011200-
NORTH CENTRAL MONTANA

CITY           SKY/WX    TMP DP  RH WIND       PRES   REMARKS
HAVRE          CLEAR     55  52  89 SW3       30.02S FOG
LEWISTOWN      CLEAR     55  50  83 SE5       30.09S
CHINOOK          N/A     55  55 100 SW3       30.02R
FORT BENTON      N/A     59  54  82 S3        30.04S
$$

MTZ017>020-022>027-061-062-011200-
NORTHEAST MONTANA

CITY           SKY/WX    TMP DP  RH WIND       PRES   REMARKS
JORDAN           N/A     63  55  75 CALM      29.97R
SIDNEY         CLOUDY    64  61  88 N9        29.95R
WOLF POINT     CLOUDY    65  59  81 E7        29.97R HAZE
MALTA            N/A     58  51  77 CALM      29.96S
PLENTYWOOD       N/A     59  59 100 N3        29.98R VSB 1/4
POPLAR           N/A     61  61 100 N6        29.97R
SCOBEY           N/A     52  47  83 CALM      29.98R VSB 0
$$

MTZ028>42-056>058-011200-
SOUTHCENTRAL AND SOUTHEAST MONTANA

CITY           SKY/WX    TMP DP  RH WIND       PRES   REMARKS
BAKER          FOG       60  60 100 CALM      29.95R VSB 1/4
BILLINGS       PTCLDY    67  50  54 CALM      30.06S
LIVINGSTON     PTCLDY    57  49  74 CALM      30.12R
MILES CITY     PTCLDY    65  55  70 NW8       29.95S HAZE
EKALAKA          N/A     63  52  67 W5        29.96R
FORSYTH          N/A     68  54  60 W6        29.98R
LAUREL           N/A     65  47  52 CALM      30.04S
ROUNDUP          N/A     60  49  67 CALM      29.97R
$$

REGIONAL REPORTS...DAKOTAS

CITY           SKY/WX    TMP DP  RH WIND       PRES   REMARKS
WILLISTON      FOG       59  58  96 N10       29.96S VSB 1/2
MINOT          FOG       62  61  96 NW6       29.93R VSB 1/4
DICKINSON      CLOUDY    62  60  93 E6        29.92R FOG
BEACH          LGT RAIN  59  59 100 NE3       29.96R VSB<1/4
CROSBY         FOG       59  59 100 N3        29.97F VSB<1/4
BISMARCK       CLOUDY    63  61  93 NE5       29.92R FOG
GRAND FORKS    PTCLDY    58  54  86 CALM      29.92S
FARGO          FAIR      63  59  87 CALM      29.93R
BUFFALO SD       N/A     61  60  97 N5        29.87R
RAPID CITY     CLEAR     66  58  75 NW12      29.92S
$$

REGIONAL REPORTS...WYOMING/IDAHO/WASHINGTON

CITY           SKY/WX    TMP DP  RH WIND       PRES   REMARKS
GILLETTE       CLEAR     60  50  69 CALM      30.07R
SHERIDAN       CLEAR     58  49  72 CALM      30.07R
BUFFALO WY     CLEAR     63  45  51 W7        30.13S
CODY           CLEAR     63  48  59 S7        30.13S
YELLOWSTONE LA   N/A     48  44  86 NW3       30.35S
IDAHO FALLS    MOCLDY    62  56  80 CALM      30.10S
SALMON         CLEAR     59  52  77 CALM      30.09S
BOISE          CLEAR     73  52  47 CALM      29.99R
SPOKANE        PTCLDY    70  46  42 CALM      29.98R
$$

REGIONAL REPORTS...ALBERTA

CITY           SKY/WX    TMP DP  RH WIND       PRES   REMARKS
EDMONTON       CLOUDY    61  54  77 NW16G22   29.99R
CALGARY        MOCLDY    57  54  88 NW5       30.08S
LETHBRIDGE     PTCLDY    59  57  94 VRB2      30.02F FOG
MEDICINE HAT   PTCLDY    55  54  94 SW6       30.01S FOG
WATERTON GATE    N/A     52  52 100 E2          N/A
CARDSTON         N/A     57  57 100 W3          N/A
MILK RIVER       N/A     59  57  94 W1          N/A
ONEFOUR          N/A     55  50  82 N5          N/A
$$

REGIONAL REPORTS...SASKATCHEWAN

CITY           SKY/WX    TMP DP  RH WIND       PRES   REMARKS
SWIFT CURRENT  PTCLDY    57 N/A N/A W5        30.00S
SASKATOON      CLEAR     57  55  94 SW5       29.96R FOG
CYPRESS HILLS    N/A     54  52  94 CALM        N/A
VAL MARIE        N/A     50  48  93 NE5         N/A
ROCKGLEN         N/A     55  54  94 N1          N/A
$$



USA.gov is the U.S. government's official web portal to all federal, state and local government web resources and services.